[[{"header":{"parameterUnit":"m.s-1","parameterCategory":1,"la1":30.2991,"la2":30.254,"lo1":-89.0895,"lo2":-89.0444,"dy":0.0017,"dx":0.0017,"nx":28,"ny":28,"refTime":"2026-02-07T09:00:00:Z","depth":0,"parameterNumber":2,"parameterNumberName":"U-component_of_WINDS"},"data":[0,0,0,0,0,0,0,0,0,0,0,0,0,0,0,0,0,0,0,0,0,0,0,0,0,0,0,0,0,0,0,0,0,0,0,0,0,0,0,0,0,0,0,0,0,0,0,0,0,0,0,0,0,0,0,0,0,0,-1.3725,-1.3725,0,-1.3711,-1.371,-1.371,-1.3665,-1.3664,-1.3663,-1.3662,-1.3648,-1.3649,-1.3649,0,0,0,0,0,0,0,0,0,0,0,0,0,-1.3715,-1.3716,-1.3725,-1.3725,-1.3725,-1.3711,-1.371,-1.371,-1.3665,-1.3664,-1.3663,-1.3662,-1.3648,-1.3649,-1.3649,0,0,0,0,0,0,0,0,0,0,0,0,0,-1.3712,-1.3716,-1.3725,-1.3701,-1.3698,-1.3711,-1.371,-1.371,-1.3666,-1.3664,-1.3663,-1.3661,-1.3648,-1.3649,-1.365,-1.3685,0,0,-1.3652,-1.3652,0,0,0,0,0,0,0,0,-1.3712,-1.3713,-1.3704,-1.3702,-1.37,-1.3688,-1.3702,-1.3702,-1.3666,-1.3678,-1.3662,-1.366,-1.3663,-1.3662,-1.3663,-1.3684,-1.3683,-1.3652,-1.3653,-1.3653,-1.3653,0,0,0,0,0,0,0,-1.3713,-1.3713,-1.3719,-1.3704,-1.3701,-1.3691,-1.3689,-1.3702,-1.3679,-1.3677,-1.3673,-1.3672,-1.3661,-1.3662,-1.3662,-1.3683,-1.3652,-1.3653,-1.3653,-1.3654,-1.3732,-1.3733,0,0,0,0,0,0,-1.3716,-1.3713,-1.372,-1.3719,-1.3702,-1.3692,-1.369,-1.3693,-1.3679,-1.3675,-1.3674,-1.367,-1.3661,-1.3661,-1.3662,-1.37,-1.3653,-1.3654,-1.3654,-1.373,-1.3732,-1.3734,0,0,0,0,0,0,-1.3716,-1.3717,-1.372,-1.3715,-1.3715,-1.3694,-1.3698,-1.3694,-1.3695,-1.3676,-1.3672,-1.3679,-1.366,-1.366,-1.3679,-1.3699,-1.3654,-1.3655,-1.3729,-1.3731,-1.3733,-1.3779,0,0,0,0,0,0,-1.3716,-1.3717,-1.373,-1.3716,-1.3715,-1.3738,-1.37,-1.3695,-1.3696,-1.3692,-1.368,-1.3676,-1.3659,-1.3678,-1.368,-1.37,-1.3656,-1.3727,-1.373,-1.3732,-1.3776,-1.3783,-1.3789,0,0,0,0,0,-1.3716,-1.3744,-1.3731,-1.3732,-1.3731,-1.3739,-1.3739,-1.3718,-1.3698,-1.371,-1.3699,-1.3677,-1.3698,-1.368,-1.3682,-1.3702,-1.3725,-1.3729,-1.3732,-1.3773,-1.3782,-1.3789,0,0,0,0,0,0,-1.3761,-1.3742,-1.3727,-1.3751,-1.3747,-1.3731,-1.3746,-1.3728,-1.3729,-1.3725,-1.37,-1.3697,-1.3719,-1.3713,-1.3694,-1.3735,-1.3708,-1.3712,-1.3738,-1.3746,-1.3753,-1.3752,-1.3656,0,0,0,0,0,-1.3775,-1.3782,-1.3765,-1.3788,-1.3787,-1.3767,-1.377,-1.3755,-1.3749,-1.3747,-1.3737,-1.3733,-1.3738,-1.3742,-1.3747,-1.3776,-1.3772,-1.3791,-1.3798,-1.3803,-1.3806,-1.382,-1.3828,-1.3746,-1.3746,-1.3745,0,0,-1.3801,-1.3791,-1.3798,-1.3797,-1.3792,-1.3801,-1.3766,-1.3777,-1.3783,-1.3749,-1.3765,-1.3758,-1.3752,-1.3776,-1.3786,-1.3771,-1.3828,-1.3808,-1.3812,-1.3812,-1.3824,-1.3832,-1.3839,-1.3748,-1.3748,-1.3747,0,0,-1.3853,-1.3848,-1.3865,-1.3861,-1.3854,-1.3841,-1.3845,-1.3833,-1.3826,-1.3842,-1.3816,-1.3824,-1.3835,-1.3831,-1.383,-1.3883,-1.3862,-1.3886,-1.3919,-1.3933,-1.3939,-1.3945,-1.3962,-1.3968,-1.3889,-1.3889,-1.3889,0,-1.3887,-1.3899,-1.3877,-1.3889,-1.389,-1.386,-1.3878,-1.3875,-1.387,-1.387,-1.3855,-1.3867,-1.3861,-1.3883,-1.3895,-1.3897,-1.3901,-1.3885,-1.394,-1.3945,-1.395,-1.3966,-1.3973,-1.3892,-1.3892,-1.3891,-1.3891,0,-1.394,-1.3949,-1.3964,-1.3959,-1.3962,-1.3977,-1.3958,-1.3963,-1.3948,-1.3937,-1.3954,-1.3946,-1.3947,-1.3952,-1.3938,-1.3972,-1.3963,-1.3945,-1.3915,-1.3961,-1.3975,-1.3982,-1.3896,-1.3895,-1.3894,-1.3893,0,0,-1.4018,-1.4001,-1.4007,-1.4004,-1.3995,-1.4001,-1.4016,-1.4017,-1.4021,-1.402,-1.403,-1.404,-1.4023,-1.4022,-1.4008,-1.402,-1.4061,-1.4,-1.3999,-1.4009,-1.4096,-1.4108,-1.4116,-1.4048,-1.4049,-1.405,-1.4096,0,-1.4065,-1.4088,-1.4069,-1.4095,-1.4102,-1.4075,-1.4087,-1.4083,-1.4074,-1.4079,-1.4069,-1.4076,-1.4053,-1.4052,-1.4064,-1.4053,-1.4077,-1.405,-1.4057,-1.4057,-1.4056,-1.4124,-1.4137,-1.418,-1.4102,-1.4103,-1.4103,0,-1.4123,-1.4123,-1.4149,-1.4138,-1.414,-1.4152,-1.4151,-1.4157,-1.4152,-1.4145,-1.4145,-1.4127,-1.414,-1.4114,-1.4132,-1.4114,-1.4116,-1.4112,-1.4113,-1.4111,-1.4081,-1.4121,-1.4194,-1.4199,-1.4112,-1.4112,-1.4111,0,-1.4174,-1.4182,-1.4198,-1.4197,-1.4184,-1.4193,-1.4188,-1.4182,-1.4184,-1.4184,-1.4185,-1.4187,-1.4188,-1.4191,-1.4174,-1.4157,-1.4194,-1.4166,-1.4187,-1.4187,-1.4193,-1.4192,-1.4265,-1.4199,-1.4199,-1.4199,-1.4199,0,-1.4228,-1.4244,-1.4221,-1.423,-1.4248,-1.4228,-1.4247,-1.4239,-1.4234,-1.4242,-1.422,-1.4228,-1.4207,-1.4213,-1.4201,-1.4217,-1.4218,-1.4211,-1.4207,-1.4212,-1.4212,-1.4211,-1.4206,-1.4201,-1.42,-1.42,-1.42,0,-1.4287,-1.4272,-1.4287,-1.4275,-1.4272,-1.4286,-1.4275,-1.4284,-1.4274,-1.4284,-1.4286,-1.427,-1.4276,-1.426,-1.4265,-1.4256,-1.4278,-1.4271,-1.4279,-1.4276,-1.4296,-1.4294,-1.4368,-1.4376,-1.4308,-1.4309,-1.4309,0,-1.432,-1.4332,-1.4321,-1.4325,-1.4321,-1.4328,-1.4329,-1.4311,-1.4314,-1.4309,-1.4318,-1.4323,-1.4325,-1.4336,-1.4325,-1.4328,-1.4319,-1.4345,-1.4319,-1.4323,-1.4316,-1.4315,-1.4315,-1.4349,-1.435,-1.4351,-1.4351,0,-1.4381,-1.4373,-1.4376,-1.4377,-1.438,-1.438,-1.4378,-1.4383,-1.4363,-1.4367,-1.4373,-1.4375,-1.4379,-1.4383,-1.4384,-1.4379,-1.4362,-1.436,-1.4364,-1.4368,-1.4371,-1.4367,-1.4291,-1.4358,-1.4357,-1.4357,-1.4356,-1.4356,-1.4426,-1.4435,-1.4429,-1.4433,-1.443,-1.4429,-1.4437,-1.4428,-1.4432,-1.4433,-1.4423,-1.4431,-1.4426,-1.4425,-1.4423,-1.4429,-1.4417,-1.4424,-1.4425,-1.4426,-1.4429,-1.4373,-1.4429,-1.4429,-1.4429,-1.4429,-1.4429,0,-1.4483,-1.4478,-1.4483,-1.4481,-1.4485,-1.4469,-1.4467,-1.447,-1.4477,-1.4475,-1.4477,-1.4484,-1.4488,-1.4478,-1.4481,-1.4488,-1.448,-1.4489,-1.4487,-1.4486,-1.444,-1.4435,-1.4495,-1.4495,-1.4495,-1.4495,-1.4495,-1.4495,-1.4513,-1.4527,-1.4519,-1.4532,-1.4527,-1.4534,-1.4534,-1.4533,-1.453,-1.4538,-1.4542,-1.4535,-1.453,-1.4532,-1.4535,-1.4532,-1.4533,-1.4545,-1.4539,-1.4496,-1.4489,-1.4483,-1.4478,-1.4546,-1.4546,-1.4584,-1.4584,-1.4584]},{"header":{"parameterUnit":"m.s-1","parameterCategory":1,"la1":30.2991,"la2":30.254,"lo1":-89.0895,"lo2":-89.0444,"dy":0.0017,"dx":0.0017,"nx":28,"ny":28,"refTime":"2026-02-07T09:00:00:Z","depth":0,"parameterNumber":3,"parameterNumberName":"V-component_of_WINDS"},"data":[0,0,0,0,0,0,0,0,0,0,0,0,0,0,0,0,0,0,0,0,0,0,0,0,0,0,0,0,0,0,0,0,0,0,0,0,0,0,0,0,0,0,0,0,0,0,0,0,0,0,0,0,0,0,0,0,0,0,1.6987,1.6987,0,1.7001,1.7001,1.7001,1.7102,1.7105,1.7107,1.711,1.7122,1.712,1.7118,0,0,0,0,0,0,0,0,0,0,0,0,0,1.7048,1.7047,1.6987,1.6987,1.6987,1.7,1.7001,1.7001,1.7102,1.7105,1.7108,1.7111,1.7122,1.712,1.7117,0,0,0,0,0,0,0,0,0,0,0,0,0,1.7038,1.7046,1.6987,1.7039,1.7044,1.7,1.7001,1.7001,1.7101,1.7105,1.7109,1.7112,1.7123,1.712,1.7117,1.7024,0,0,1.7108,1.7107,0,0,0,0,0,0,0,0,1.7038,1.7035,1.7031,1.7035,1.7041,1.7054,1.7027,1.7008,1.71,1.7079,1.711,1.7114,1.7096,1.7095,1.709,1.7024,1.7025,1.7108,1.7106,1.7105,1.7104,0,0,0,0,0,0,0,1.7039,1.7035,1.6992,1.7031,1.7037,1.7062,1.7065,1.7024,1.7066,1.7082,1.7089,1.7089,1.7099,1.7092,1.7091,1.7025,1.7108,1.7105,1.7103,1.7102,1.6888,1.6884,0,0,0,0,0,0,1.7032,1.7035,1.6992,1.6993,1.7049,1.7058,1.7061,1.7046,1.7067,1.7074,1.7086,1.7094,1.7096,1.7094,1.7091,1.6986,1.7105,1.7102,1.71,1.6891,1.6887,1.6883,0,0,0,0,0,0,1.7033,1.7027,1.6991,1.7016,1.7013,1.7053,1.7035,1.7044,1.7037,1.7071,1.7079,1.7071,1.7098,1.7096,1.7041,1.6988,1.71,1.7098,1.6896,1.689,1.6885,1.6772,0,0,0,0,0,0,1.7035,1.7027,1.6991,1.7014,1.7012,1.694,1.7032,1.7042,1.7032,1.7042,1.7059,1.7065,1.7101,1.7045,1.7038,1.6986,1.7095,1.6901,1.6893,1.6887,1.6781,1.6763,1.6748,0,0,0,0,0,1.7036,1.6958,1.6989,1.6983,1.6968,1.6936,1.6935,1.6978,1.7027,1.6992,1.7015,1.7064,1.6995,1.7038,1.7031,1.6977,1.6905,1.6896,1.6887,1.6788,1.6767,1.6749,0,0,0,0,0,0,1.6926,1.6962,1.6997,1.6923,1.6926,1.6953,1.691,1.6954,1.6942,1.6952,1.7007,1.7009,1.6947,1.6957,1.7005,1.689,1.6959,1.6948,1.6886,1.6866,1.685,1.6849,1.7093,0,0,0,0,0,1.6893,1.6865,1.6898,1.683,1.683,1.6869,1.6857,1.6891,1.6896,1.6897,1.6915,1.6918,1.6897,1.6882,1.6864,1.6783,1.679,1.6743,1.6727,1.6713,1.6703,1.6665,1.6645,1.6854,1.6854,1.6854,0,0,1.6824,1.6841,1.6819,1.6808,1.6814,1.6784,1.687,1.6833,1.6812,1.6892,1.6842,1.6855,1.6862,1.6794,1.6766,1.6801,1.6647,1.6702,1.6691,1.6689,1.6654,1.6634,1.6616,1.6848,1.6849,1.685,0,0,1.6685,1.6694,1.664,1.6645,1.6655,1.6682,1.6669,1.6691,1.6704,1.6655,1.6715,1.6691,1.6652,1.6656,1.6652,1.6518,1.6565,1.6511,1.6426,1.6387,1.6371,1.6357,1.6311,1.6294,1.6501,1.6501,1.6501,0,1.6598,1.6556,1.6606,1.6567,1.6562,1.6635,1.6581,1.6584,1.6586,1.6581,1.662,1.6577,1.6586,1.6522,1.649,1.6484,1.6472,1.6509,1.6369,1.6356,1.6343,1.63,1.6283,1.6495,1.6495,1.6496,1.6497,0,1.6451,1.642,1.6376,1.6379,1.6368,1.6322,1.6366,1.6349,1.6385,1.6409,1.636,1.6374,1.6362,1.6349,1.6383,1.6291,1.6313,1.636,1.643,1.6316,1.6277,1.626,1.6485,1.6488,1.649,1.6491,0,0,1.6239,1.6274,1.6257,1.6261,1.6278,1.6256,1.6214,1.6204,1.619,1.6189,1.6157,1.6125,1.617,1.6166,1.6201,1.6167,1.6063,1.6219,1.622,1.6191,1.5966,1.5931,1.5911,1.6095,1.6092,1.6089,1.5966,0,1.6107,1.6038,1.6084,1.6008,1.5983,1.6053,1.6018,1.6025,1.6047,1.6028,1.6053,1.603,1.609,1.6089,1.6058,1.6082,1.6019,1.6092,1.6066,1.6064,1.6063,1.5891,1.5853,1.5736,1.5951,1.5948,1.5947,0,1.5943,1.5939,1.586,1.5887,1.5878,1.5844,1.5841,1.5822,1.5833,1.5852,1.5849,1.5894,1.5856,1.5925,1.5875,1.5923,1.5916,1.5926,1.5923,1.5923,1.5999,1.5887,1.57,1.5683,1.5923,1.5924,1.5926,0,1.5799,1.5774,1.5725,1.5726,1.5754,1.573,1.5741,1.5755,1.5747,1.5744,1.574,1.5732,1.5727,1.5721,1.5763,1.5809,1.5708,1.578,1.5723,1.5722,1.5699,1.57,1.5509,1.5692,1.5692,1.5692,1.5693,0,1.5647,1.5597,1.5661,1.5631,1.5578,1.5632,1.5578,1.5596,1.5609,1.5585,1.5645,1.562,1.5677,1.5659,1.5691,1.5646,1.5643,1.5658,1.5667,1.5653,1.5652,1.5649,1.5659,1.5688,1.5689,1.5689,1.569,0,1.5478,1.5518,1.547,1.5503,1.551,1.547,1.5498,1.5472,1.5499,1.5468,1.5463,1.5506,1.5488,1.553,1.5516,1.5539,1.5475,1.5497,1.5472,1.5479,1.5421,1.5427,1.5223,1.52,1.5396,1.5394,1.5392,0,1.5378,1.5342,1.5372,1.5361,1.5369,1.5349,1.5343,1.5395,1.5386,1.5398,1.537,1.5358,1.5351,1.5319,1.5349,1.5341,1.5364,1.5293,1.5363,1.5351,1.5365,1.5367,1.5365,1.5278,1.5276,1.5274,1.5273,0,1.5199,1.5222,1.521,1.5207,1.5198,1.5198,1.5201,1.5188,1.5245,1.5231,1.5215,1.5209,1.5199,1.5186,1.5185,1.5197,1.5244,1.5251,1.5238,1.5223,1.5211,1.5219,1.5434,1.5255,1.5257,1.5258,1.5259,1.526,1.5063,1.5035,1.5053,1.504,1.5049,1.5051,1.503,1.5056,1.5043,1.504,1.5071,1.5049,1.5064,1.5068,1.5075,1.5058,1.509,1.5071,1.5066,1.5061,1.5052,1.5213,1.5058,1.5059,1.5059,1.506,1.506,0,1.4888,1.4904,1.4891,1.4896,1.4886,1.4933,1.4941,1.4929,1.4909,1.4919,1.4912,1.4895,1.4884,1.4914,1.4908,1.4889,1.4911,1.4886,1.4889,1.4891,1.5023,1.5036,1.4869,1.4869,1.4869,1.4869,1.4869,1.4869,1.4796,1.4753,1.4779,1.4742,1.4758,1.4738,1.4738,1.4742,1.4751,1.473,1.4722,1.4742,1.4761,1.4758,1.4751,1.476,1.4756,1.4723,1.474,1.4863,1.4881,1.4899,1.4912,1.4722,1.4721,1.4611,1.461,1.4609]}]]